Weather History for Cedar City, UT

Change the Weather History Date:

Tuesday, January 15, 2013

  Actual Average Record
Temperature  
Mean Temperature 6 °F 29 °F  
Max Temperature 23 °F 42 °F 60 °F (1956)
Min Temperature -11 °F 17 °F -16 °F (2007)
Degree Days  
Heating Degree Days 59 36  
Month to date heating degree days 791 547  
Since 1 July heating degree days 3009 3109  
Cooling Degree Days 0 0  
Month to date cooling degree days 0 0  
Year to date cooling degree days 0 0  
Moisture  
Dew Point -3 °F    
Average Humidity 64    
Maximum Humidity 80    
Minimum Humidity 47    
Precipitation  
Precipitation 0.00 in 0.03 in 0.19 in (1970)
Month to date precipitation 0.18 0.43  
Year to date precipitation 0.18 0.43  
Sea Level Pressure  
Sea Level Pressure 30.63 in    
Wind  
Wind Speed 5 mph (NNE)    
Max Wind Speed 20 mph    
Max Gust Speed 26 mph    
Visibility 10 miles    
Events      
T = Trace of Precipitation, MM = Missing Value Source: NWS Daily Summary

Daily Weather History Graph

Daily Weather History Graph

Search for Another Location

Airport:

Trip Planner

Search our weather history database for the weather conditions in past years. The results will help you decide how hot, cold, wet, or windy it might be!

Date:

Astronomy

Jan. 15, 2013 Rise Set
Actual Time 7:46 AM MST 5:37 PM MST
Civil Twilight 7:17 AM MST 6:06 PM MST
Nautical Twilight 6:45 AM MST 6:38 PM MST
Astronomical Twilight 6:14 AM MST 7:10 PM MST
Moon 9:59 AM MST (1/15) 10:25 PM MST (1/15)
Length of Visible Light 10h 48m
Length of Day
9h 51m
Waxing Crescent, 20% of the Moon is Illuminated
Jan 15
Waxing Crescent
Jan 18
First Quarter
Jan 26
Full
Feb 3
Last Quarter
Feb 10
New

Hourly Weather History & Observations

Time (MST) Temp. Windchill Dew Point Humidity Pressure Visibility Wind Dir Wind Speed Gust Speed Precip Events Conditions
12:53 AM -8.0 °F - -14.1 °F 75% 30.56 in 10.0 mi Calm Calm - N/A   Clear
1:53 AM -9.9 °F - -15.0 °F 78% 30.56 in 10.0 mi Calm Calm - N/A   Clear
2:53 AM -6.0 °F - -13.0 °F 72% 30.58 in 10.0 mi Calm Calm - N/A   Clear
3:53 AM -6.0 °F - -13.0 °F 72% 30.60 in 10.0 mi Calm Calm - N/A   Clear
4:53 AM -8.0 °F -19.2 °F -14.1 °F 75% 30.61 in 10.0 mi WNW 4.6 mph - N/A   Clear
5:32 AM -7.6 °F -18.8 °F -13.0 °F 77% 30.33 in 10.0 mi SE 4.6 mph - N/A   Mostly Cloudy
5:53 AM -4.0 °F -16.3 °F -11.0 °F 72% 30.63 in 10.0 mi SE 5.8 mph - N/A   Mostly Cloudy
6:09 AM -4.0 °F -12.4 °F -11.2 °F 71% 30.32 in 10.0 mi SE 3.5 mph - N/A   Scattered Clouds
6:53 AM -9.9 °F -19.2 °F -15.0 °F 78% 30.69 in 10.0 mi North 3.5 mph - N/A   Clear
7:53 AM -4.0 °F - -11.0 °F 72% 30.70 in 10.0 mi Calm Calm - N/A   Clear
8:53 AM -0.0 °F - -6.0 °F 76% 30.69 in 10.0 mi Calm Calm - N/A   Clear
9:53 AM 6.1 °F - -4.0 °F 63% 30.73 in 10.0 mi Calm Calm - N/A   Clear
10:53 AM 10.9 °F 2.9 °F -0.9 °F 59% 30.69 in 10.0 mi East 4.6 mph - N/A   Clear
11:53 AM 18.0 °F 12.7 °F 3.0 °F 52% 30.65 in 10.0 mi NNE 3.5 mph - N/A   Clear
12:53 PM 21.0 °F 11.4 °F 6.1 °F 53% 30.63 in 10.0 mi NNE 8.1 mph - N/A   Clear
1:53 PM 21.9 °F 12.5 °F 6.1 °F 51% 30.63 in 10.0 mi NE 8.1 mph - N/A   Clear
2:53 PM 23.0 °F 12.4 °F 7.0 °F 50% 30.62 in 10.0 mi North 10.4 mph - N/A   Clear
3:53 PM 21.9 °F 9.2 °F 7.0 °F 53% 30.64 in 10.0 mi North 13.8 mph - N/A   Clear
4:53 PM 21.0 °F 6.6 °F 9.0 °F 60% 30.66 in 10.0 mi North 17.3 mph - N/A   Clear
5:53 PM 19.0 °F 4.5 °F 9.0 °F 65% 30.66 in 10.0 mi North 16.1 mph - N/A   Clear
6:53 PM 15.1 °F 1.8 °F 7.0 °F 70% 30.73 in 10.0 mi NNW 11.5 mph - N/A   Clear
7:53 PM 10.0 °F -4.5 °F 3.9 °F 76% 30.73 in 10.0 mi NNW 11.5 mph - N/A   Clear
8:53 PM 10.0 °F 3.6 °F 3.0 °F 73% 30.73 in 10.0 mi NE 3.5 mph - N/A   Clear
9:53 PM 8.1 °F - 1.9 °F 76% 30.70 in 10.0 mi Calm Calm - N/A   Scattered Clouds
11:53 PM 12.0 °F 5.9 °F 6.1 °F 77% 30.65 in 10.0 mi North 3.5 mph - N/A   Overcast